FW0267 Weather Reports


time (UTC)temp
F
wind
direction
speed
knots
gust
knots
rain 1hr
in
rain 24hr
in
rain mn
in
humidity
%
barometer
mb
20260905230526 0 112 0.0 0.9 0.00 0.68 0.61 1011.3
20260905230026 0 112 0.0 0.9 0.00 0.68 0.61 1011.4
20260905225527 0 75 0.0 1.7 0.00 0.82 0.61 1011.3
20260905225023 0 107 0.0 1.7 0.00 0.82 0.61 1011.1
20260905224522 0 126 0.0 1.7 0.00 0.82 0.61 1011.4
20260905224021 0 123 0.0 0.9 0.00 0.82 0.61 1011.4
20260905223519 0 106 0.0 0.9 0.00 0.82 0.61 1011.2
20260905223018 0 106 0.0 0.9 0.00 0.82 0.61 1011.1
20260905222516 0 85 0.0 0.9 0.00 0.82 0.61 1011.1
20260905222014 0 95 0.0 0.9 0.00 0.82 0.61 1011.0
20260905221513 0 107 0.0 0.9 0.00 0.82 0.61 1011.1
20260905221012 0 125 0.0 0.9 0.00 0.82 0.61 1011.1
20260905220513 0 138 0.0 0.9 0.00 0.82 0.61 1011.1
20260905220012 0 138 0.0 1.7 0.00 0.82 0.61 1011.0
20260905215509 0 98 0.0 1.7 0.00 0.82 0.61 1011.2
20260905215010 0 170 0.0 0.9 0.00 0.82 0.61 1011.2
20260905214508 0 103 0.0 0.9 0.00 0.82 0.61 1011.2
20260905214008 0 123 0.0 0.9 0.00 0.82 0.61 1011.2
20260905213508 0 92 0.0 0.9 0.00 0.82 0.61 1011.2
20260905213009 0 134 0.0 1.7 0.00 0.82 0.61 1011.3
20260905212508 0 134 0.0 1.7 0.00 0.82 0.61 1011.3
20260905212007 0 135 0.0 1.7 0.00 0.82 0.61 1011.2
20260905211507 0 142 0.9 1.7 0.00 0.82 0.61 1011.1
20260905211007 0 136 0.0 0.9 0.00 0.82 0.61 1011.3
20260905210509 0 88 0.0 0.9 0.00 0.82 0.61 1011.3
20260905210006 0 109 0.0 1.7 0.00 0.82 0.61 1011.4
20260905205505 0 109 0.0 1.7 0.00 0.82 0.61 1011.4
20260905205006 0 121 0.9 1.7 0.00 0.82 0.61 1011.4
20260905204508 0 107 0.9 1.7 0.00 0.82 0.61 1011.4
20260905204005 0 84 0.0 0.9 0.00 0.82 0.61 1011.3
20260905203505 0 101 0.0 1.7 0.00 0.82 0.61 1011.2
20260905203005 0 101 0.0 1.7 0.00 0.82 0.61 1011.3
20260905202508 0 122 0.9 1.7 0.00 0.82 0.61 1011.3
20260905202005 0 123 0.9 1.7 0.00 0.82 0.61 1011.3
20260905201508 0 115 0.0 0.9 0.00 0.82 0.61 1011.4
20260905201006 0 125 0.0 0.9 0.01 0.82 0.61 1011.4
20260905200506 0 125 0.0 1.7 0.02 0.82 0.61 1011.4
20260905200005 0 96 0.0 1.7 0.02 0.82 0.61 1011.2
20260905195504 0 5 0.0 1.7 0.02 0.82 0.61 1011.4
20260905195006 0 90 0.0 0.9 0.03 0.82 0.61 1011.5
20260905194504 0 103 0.0 0.9 0.03 0.82 0.61 1011.5
20260905194003 0 103 0.0 0.9 0.03 0.82 0.61 1011.5
20260905193503 0 103 0.0 1.7 0.05 0.82 0.61 1011.7
20260905193007 0 96 0.0 1.7 0.05 0.82 0.61 1011.4
20260905192503 0 123 0.0 1.7 0.05 0.82 0.61 1011.4
20260905192004 0 126 0.9 1.7 0.05 0.82 0.61 1011.3
20260905191504 0 132 0.0 0.0 0.05 0.82 0.61 1011.8
20260905191004 0 132 0.0 1.7 0.04 0.81 0.60 1012.0
20260905190502 0 132 0.0 1.7 0.03 0.80 0.59 1012.1
20260905190004 0 21 0.0 1.7 0.03 0.80 0.59 1012.4
20260905185502 0 126 0.9 1.7 0.02 0.79 0.57 1012.3
20260905185001 0 360 0.0 0.0 0.02 0.79 0.57 1012.7
20260905184505 0 360 0.0 1.7 0.02 0.79 0.57 1012.1
20260905184001 0 360 0.9 1.7 0.01 0.78 0.56 1012.2
20260905183601 0 11 0.0 1.7 0.00 0.77 0.56 1011.9
20260905183002 0 350 0.0 1.7 0.00 0.77 0.56 1011.9
20260905182502 0 108 0.0 2.6 0.00 0.77 0.56 1011.9
20260905182101 0 123 0.0 2.6 0.00 0.77 0.56 1012.0
20260905181601 0 116 0.0 1.7 0.00 0.77 0.56 1012.0
20260905181058 0 23 0.0 2.6 0.00 0.77 0.56 1012.1
20260905180556 0 81 0.0 2.6 0.00 0.77 0.56 1012.0
20260905180055 0 349 0.0 2.6 0.01 0.77 0.56 1012.3
20260905175553 0 134 0.0 0.0 0.03 0.77 0.56 1012.4
20260905175052 0 130 0.0 1.7 0.05 0.77 0.56 1012.5
20260905174550 0 131 0.0 1.7 0.06 0.77 0.56 1012.7
20260905174048 0 82 0.0 0.9 0.09 0.77 0.56 1012.8
20260905173550 0 100 0.0 1.7 0.17 0.77 0.56 1013.0
20260905173046 0 111 0.0 0.9 0.24 0.77 0.56 1012.8
20260905172544 0 5 0.0 1.7 0.31 0.77 0.56 1012.6
20260905172043 0 5 0.0 1.7 0.43 0.77 0.56 1012.6
20260905171543 0 110 0.0 1.7 0.55 0.77 0.56 1012.7
20260905171039 0 107 0.0 2.6 0.56 0.77 0.56 1012.7
20260905170538 0 78 0.0 2.6 0.56 0.77 0.56 1013.0
20260905170038 0 94 0.0 0.9 0.55 0.76 0.55 1013.2
20260905165536 0 94 0.0 1.7 0.53 0.74 0.53 1013.7
20260905165033 0 92 0.0 1.7 0.51 0.72 0.51 1014.0
20260905164533 0 12 0.0 1.7 0.50 0.71 0.50 1013.9
20260905164030 0 22 0.0 1.7 0.46 0.67 0.46 1014.0
20260905163529 0 46 0.0 0.9 0.38 0.59 0.38 1014.0
20260905163028 0 65 0.0 1.7 0.32 0.53 0.32 1013.8
20260905162530 0 65 0.0 1.7 0.23 0.44 0.23 1014.1
20260905162025 0 117 0.0 1.7 0.12 0.33 0.12 1014.1
20260905161524 0 123 0.9 1.7 0.00 0.21 0.00 1014.3
20260905161026 0 349 0.0 2.6 0.00 0.21 0.00 1013.6
20260905160520 0 60 0.0 2.6 0.00 0.21 0.00 1013.1
20260905160026 0 355 0.0 1.7 0.00 0.21 0.00 1013.0
20260905155517 0 355 0.0 2.6 0.00 0.21 0.00 1012.8
20260905155016 0 142 0.9 2.6 0.00 0.21 0.00 1012.4
20260905154514 0 120 0.0 2.6 0.00 0.21 0.00 1012.4
20260905154013 0 19 0.9 2.6 0.00 0.21 0.00 1012.5
20260905153513 0 355 0.9 4.3 0.00 0.21 0.00 1012.5
20260905153010 0 317 1.7 4.3 0.00 0.21 0.00 1012.5
20260905152509 0 18 0.0 2.6 0.00 0.21 0.00 1012.6
20260905152010 0 82 0.0 2.6 0.00 0.21 0.00 1012.7
20260905151506 0 117 0.9 2.6 0.00 0.21 0.00 1012.7
20260905151006 0 317 0.9 3.5 0.00 0.21 0.00 1012.7
20260905150504 0 86 0.9 3.5 0.00 0.21 0.00 1012.7
20260905150002 0 336 0.9 2.6 0.00 0.21 0.00 1012.8
20260905145601 0 342 0.9 2.6 0.00 0.21 0.00 1012.7
20260905145058 0 136 0.9 3.5 0.00 0.21 0.00 1012.7
20260905144557 0 69 0.9 5.2 0.00 0.21 0.00 1012.7
20260905144056 0 94 0.9 5.2 0.00 0.21 0.00 1012.6
20260905143554 0 126 0.9 3.5 0.00 0.21 0.00 1012.7
20260905143053 0 360 0.0 1.7 0.00 0.21 0.00 1012.7
20260905142553 0 104 0.0 1.7 0.00 0.21 0.00 1012.7
20260905142053 0 104 0.0 2.6 0.00 0.21 0.00 1012.7
20260905141551 0 132 0.0 2.6 0.00 0.21 0.00 1012.7
20260905141052 0 85 0.0 2.6 0.00 0.21 0.00 1012.6
20260905140547 0 320 0.0 3.5 0.00 0.21 0.00 1012.4
20260905140048 0 327 0.0 3.5 0.00 0.21 0.00 1012.4
20260905135545 0 327 0.9 3.5 0.00 0.21 0.00 1012.3
20260905135042 0 116 0.0 2.6 0.00 0.21 0.00 1012.2
20260905134542 0 148 0.0 2.6 0.00 0.21 0.00 1012.2
20260905134040 0 82 0.0 2.6 0.00 0.21 0.00 1012.2
20260905133538 0 316 0.9 2.6 0.00 0.21 0.00 1012.2
20260905133044 0 316 0.0 3.5 0.00 0.21 0.00 1012.1
20260905132536 0 108 0.0 1.7 0.00 0.21 0.00 1012.3
20260905132035 0 128 0.0 1.7 0.00 0.21 0.00 1012.3
20260905131535 0 125 0.0 1.7 0.00 0.21 0.00 1012.3
20260905131031 0 92 0.0 1.7 0.00 0.21 0.00 1012.1
20260905130529 0 111 0.0 1.7 0.00 0.21 0.00 1012.0
20260905130031 0 111 0.0 0.0 0.00 0.21 0.00 1011.9
20260905125527 0 111 0.0 0.0 0.00 0.21 0.00 1011.9
20260905125026 0 111 0.0 0.0 0.00 0.21 0.00 1012.0
20260905124525 0 111 0.0 1.7 0.00 0.21 0.00 1012.1
20260905124026 0 111 0.0 1.7 0.00 0.21 0.00 1012.3
20260905123521 0 121 0.0 0.9 0.00 0.21 0.00 1012.2
20260905123019 0 111 0.0 0.9 0.00 0.21 0.00 1012.3
20260905122518 0 111 0.0 0.0 0.00 0.21 0.00 1012.4
20260905122016 0 111 0.0 0.0 0.00 0.21 0.00 1012.3
20260905121515 0 111 0.0 0.0 0.00 0.21 0.00 1012.3
20260905121014 0 111 0.0 1.7 0.00 0.21 0.00 1012.4
20260905120513 0 109 0.0 1.7 0.00 0.21 0.00 1012.3
20260905120015 0 121 0.0 1.7 0.00 0.21 0.00 1012.1
20260905115512 0 107 0.0 0.0 0.00 0.21 0.00 1012.2
20260905115008 0 107 0.0 0.0 0.00 0.21 0.00 1012.2
20260905114506 0 107 0.0 0.0 0.00 0.21 0.00 1012.2
20260905114005 0 107 0.0 0.0 0.00 0.21 0.00 1012.0
20260905113504 0 107 0.0 0.9 0.00 0.21 0.00 1012.0
20260905113002 0 107 0.0 0.9 0.00 0.21 0.00 1012.0
20260905112500 0 78 0.0 1.7 0.00 0.21 0.00 1011.9
20260905112059 0 118 0.0 1.7 0.00 0.21 0.00 1011.9
20260905111644 0 116 0.0 0.0 0.00 0.21 0.00 1012.0
20260905111057 0 116 0.0 0.0 0.00 0.21 0.00 1012.1
20260905110557 0 116 0.0 0.9 0.00 0.21 0.00 1011.9
20260905110054 0 116 0.0 0.9 0.00 0.21 0.00 1012.0
20260905105552 0 105 0.0 0.9 0.00 0.21 0.00 1011.9
20260905105053 0 103 0.0 0.9 0.00 0.21 0.00 1011.9
20260905104552 0 106 0.0 0.0 0.00 0.21 0.00 1011.8
20260905104051 0 106 0.0 0.0 0.00 0.21 0.00 1011.7
20260905103546 0 106 0.0 0.0 0.00 0.21 0.00 1011.6
20260905103045 0 106 0.0 0.0 0.00 0.21 0.00 1011.7
20260905102543 0 106 0.0 0.9 0.00 0.21 0.00 1011.6
20260905102041 0 106 0.0 0.9 0.00 0.21 0.00 1011.5
20260905101549 0 105 0.0 0.9 0.00 0.21 0.00 1011.4
20260905101039 0 92 0.0 0.9 0.00 0.21 0.00 1011.4
20260905100537 0 100 0.0 0.0 0.00 0.21 0.00 1011.5
20260905100043 0 100 0.0 0.0 0.00 0.21 0.00 1011.4
20260905095534 0 100 0.0 0.0 0.00 0.21 0.00 1011.4
20260905095032 0 100 0.0 0.0 0.00 0.21 0.00 1011.4
20260905094531 0 100 0.0 0.9 0.00 0.21 0.00 1011.3
20260905094029 0 100 0.0 0.9 0.00 0.21 0.00 1011.2
20260905093528 0 117 0.0 0.9 0.00 0.21 0.00 1011.3
20260905093027 0 88 0.0 0.9 0.00 0.21 0.00 1011.3
20260905092525 0 122 0.0 0.0 0.00 0.21 0.00 1011.2
20260905092025 0 122 0.0 0.0 0.00 0.21 0.00 1011.1
20260905091526 0 122 0.0 0.0 0.00 0.21 0.00 1011.3
20260905091022 0 122 0.0 0.0 0.00 0.21 0.00 1011.2
20260905090520 0 122 0.0 0.9 0.00 0.21 0.00 1011.2
20260905090020 0 122 0.0 1.7 0.00 0.21 0.00 1011.2
20260905085516 0 115 0.0 1.7 0.00 0.21 0.00 1011.3
20260905085016 0 126 0.9 1.7 0.00 0.21 0.00 1011.2
20260905084513 0 98 0.0 0.0 0.00 0.21 0.00 1011.2
20260905084012 0 97 0.0 0.0 0.00 0.21 0.00 1011.4
20260905083511 0 97 0.0 0.0 0.00 0.21 0.00 1011.3
20260905083010 0 97 0.0 0.0 0.00 0.21 0.00 1011.3
20260905082509 0 97 0.0 0.9 0.00 0.21 0.00 1011.4
20260905082008 0 106 0.0 0.9 0.00 0.21 0.00 1011.4
20260905081505 0 122 0.0 0.9 0.00 0.21 0.00 1011.4
20260905081006 0 111 0.0 0.9 0.00 0.21 0.00 1011.4
20260905080502 0 115 0.0 0.0 0.00 0.21 0.00 1011.5
20260905080002 0 115 0.0 0.0 0.00 0.21 0.00 1011.5
20260905075703 0 115 0.0 0.0 0.00 0.21 0.00 1011.5
20260905075057 0 115 0.0 0.9 0.00 0.21 0.00 1011.5
20260905074557 0 108 0.0 1.7 0.00 0.21 0.00 1011.6
20260905074056 0 107 0.0 1.7 0.00 0.21 0.00 1011.7
20260905073553 0 121 0.0 0.0 0.00 0.21 0.00 1011.7
20260905073055 0 121 0.0 0.0 0.00 0.21 0.00 1011.7
20260905072551 0 121 0.0 0.0 0.00 0.21 0.00 1011.7
20260905072050 0 121 0.0 0.9 0.00 0.21 0.00 1011.7
20260905071548 0 121 0.0 1.7 0.00 0.21 0.00 1011.7
20260905071047 0 122 0.0 1.7 0.00 0.21 0.00 1011.8
20260905070549 0 15 0.0 0.9 0.00 0.21 0.00 1011.9
20260905070044 0 114 0.0 0.9 0.00 0.21 0.00 1012.0
20260905065543 0 111 0.0 0.0 0.00 0.21 0.00 1012.0
20260905065041 0 111 0.0 0.9 0.00 0.21 0.00 1012.1
20260905064539 0 111 0.0 0.9 0.00 0.21 0.00 1012.0
20260905064040 0 111 0.0 0.9 0.00 0.21 0.00 1012.0
20260905063538 0 103 0.0 1.7 0.00 0.21 0.00 1012.1
20260905063037 0 98 0.0 1.7 0.00 0.21 0.00 1012.0
20260905062539 0 86 0.0 0.0 0.00 0.21 0.00 1012.1
20260905062033 0 86 0.0 0.0 0.00 0.21 0.00 1012.2
20260905061534 0 86 0.0 0.0 0.00 0.21 0.00 1012.3
20260905061031 0 86 0.0 0.9 0.00 0.21 0.00 1012.3
20260905060530 0 86 0.0 0.9 0.00 0.21 0.00 1012.5
20260905060029 0 97 0.0 0.9 0.00 0.21 0.00 1012.6
20260905055527 0 117 0.0 0.9 0.00 0.21 0.00 1012.7
20260905055025 0 112 0.0 0.0 0.00 0.21 0.00 1012.8
20260905054524 0 112 0.0 0.0 0.00 0.21 0.00 1012.8
20260905054022 0 112 0.0 1.7 0.00 0.21 0.00 1012.9
20260905053521 0 112 0.0 1.7 0.00 0.21 0.00 1013.0
20260905053019 0 125 0.0 1.7 0.00 0.21 0.00 1013.0
20260905052522 0 112 0.0 0.9 0.00 0.21 0.00 1013.2
20260905052019 0 78 0.0 0.0 0.00 0.21 0.00 1013.3
20260905051516 0 76 0.0 0.0 0.00 0.21 0.00 1013.4
20260905051013 0 76 0.0 0.9 0.00 0.21 0.00 1013.4
20260905050514 0 76 0.0 0.9 0.00 0.21 0.00 1013.4
20260905050015 0 104 0.0 0.9 0.00 0.21 0.00 1013.5
20260905045611 0 76 0.0 0.9 0.00 0.21 0.00 1013.7
20260905045007 0 86 0.0 0.9 0.00 0.21 0.00 1013.7
20260905044506 0 85 0.0 0.0 0.00 0.21 0.00 1013.8
20260905044007 0 85 0.0 0.9 0.00 0.21 0.00 1013.8
20260905043505 0 84 0.0 0.9 0.00 0.21 0.00 1013.6
20260905043002 0 64 0.0 0.9 0.00 0.21 0.00 1013.8
20260905042600 0 76 0.0 0.9 0.00 0.21 0.00 1013.8
20260905042159 0 26 0.0 0.9 0.00 0.21 0.00 1014.0
20260905041600 0 121 0.0 0.9 0.00 0.21 0.00 1013.9
20260905041057 0 121 0.0 0.9 0.00 0.21 0.00 1014.0
20260905040554 0 121 0.0 0.9 0.00 0.21 0.00 1014.0
20260905035555 0 74 0.0 0.9 0.00 0.21 0.21 1014.0
20260905035052 0 56 0.0 0.9 0.00 0.21 0.21 1014.0
20260905034602 0 102 0.0 0.0 0.00 0.21 0.21 1014.0
20260905034046 0 102 0.0 0.9 0.00 0.21 0.21 1014.2
20260905033544 0 93 0.0 1.7 0.00 0.21 0.21 1014.2
20260905033109 0 113 0.0 1.7 0.00 0.21 0.21 1014.1
20260905032542 0 127 0.0 1.7 0.00 0.21 0.21 1014.0
20260905032044 0 122 0.0 0.9 0.00 0.21 0.21 1014.0
20260905031551 0 134 0.0 1.7 0.00 0.21 0.21 1013.9
20260905031037 0 134 0.0 1.7 0.00 0.21 0.21 1013.9
20260905030536 0 159 0.0 1.7 0.00 0.21 0.21 1013.9
20260905030050 0 107 0.0 1.7 0.00 0.21 0.21 1013.9
20260905025535 0 119 0.0 1.7 0.00 0.21 0.21 1013.9
20260905025031 0 133 0.0 1.7 0.00 0.21 0.21 1013.9
20260905024530 0 134 0.0 1.7 0.00 0.21 0.21 1014.0
20260905024028 0 145 0.9 1.7 0.00 0.21 0.21 1014.2
20260905023527 0 126 0.0 1.7 0.00 0.21 0.21 1014.3
20260905023026 0 78 0.0 1.7 0.00 0.21 0.21 1014.2
20260905022524 0 125 0.9 1.7 0.00 0.21 0.21 1014.3
20260905022026 0 138 0.0 0.9 0.00 0.21 0.21 1014.2
20260905021521 0 138 0.0 2.6 0.00 0.21 0.21 1014.3
20260905021020 0 148 0.9 2.6 0.00 0.21 0.21 1014.2
20260905020520 0 128 0.9 1.7 0.00 0.21 0.21 1014.3
20260905020019 0 114 0.9 1.7 0.00 0.21 0.21 1014.3
20260905015515 0 130 0.0 1.7 0.00 0.21 0.21 1014.3
20260905015013 0 128 0.0 2.6 0.00 0.21 0.21 1014.4
20260905014511 0 128 0.0 2.6 0.00 0.21 0.21 1014.3
20260905014010 0 142 0.9 1.7 0.00 0.21 0.21 1014.3
20260905013509 0 132 0.0 1.7 0.00 0.21 0.21 1014.3
20260905013014 0 113 0.0 1.7 0.00 0.21 0.21 1014.4
20260905012506 0 131 0.0 0.9 0.00 0.21 0.21 1014.3
20260905012007 0 123 0.0 0.9 0.00 0.21 0.21 1014.0
20260905011504 0 123 0.0 1.7 0.00 0.21 0.21 1013.9
20260905011005 0 104 0.0 1.7 0.00 0.21 0.21 1013.6
20260905010602 0 112 0.0 1.7 0.00 0.21 0.21 1013.5
20260905010109 0 136 0.0 1.7 0.00 0.21 0.21 1013.3
20260905005557 0 100 0.0 1.7 0.00 0.21 0.21 1013.4
20260905005059 0 33 0.0 2.6 0.00 0.21 0.21 1013.2
20260905004558 0 130 0.0 2.6 0.00 0.21 0.21 1013.1
20260905004053 0 118 0.9 1.7 0.00 0.21 0.21 1013.4
20260905003553 0 114 0.0 0.9 0.01 0.21 0.21 1013.3
20260905003051 0 98 0.0 0.9 0.01 0.21 0.21 1013.1
20260905002549 0 15 0.0 1.7 0.01 0.21 0.21 1012.8
20260905002047 0 88 0.0 1.7 0.01 0.21 0.21 1012.6
20260905001554 0 98 0.0 1.7 0.01 0.21 0.21 1012.4
20260905001044 0 107 0.0 1.7 0.01 0.21 0.21 1012.1
20260905000542 0 73 0.0 1.7 0.04 0.21 0.21 1012.5
20260905000041 0 98 0.0 1.7 0.07 0.21 0.21 1012.2
20260904235541 0 97 0.0 1.7 0.07 0.21 0.21 1012.0
20260904235038 0 132 0.0 0.9 0.07 0.21 0.21 1012.0
20260904234536 0 110 0.0 1.7 0.07 0.21 0.21 1011.9
20260904234039 0 116 0.0 2.6 0.07 0.21 0.21 1012.1
20260904233536 0 139 0.0 2.6 0.06 0.20 0.20 1012.7
20260904233043 0 135 0.9 2.6 0.06 0.20 0.20 1013.1
20260904232536 0 159 0.0 1.7 0.06 0.20 0.20 1013.9
20260904232037 0 119 0.0 1.7 0.06 0.20 0.20 1014.6
20260904231540 0 133 0.0 1.7 0.06 0.20 0.20 1015.1
20260904231036 0 180 0.0 1.7 0.08 0.20 0.20 1015.1